"Pseudo-MPEC" for P10QAq1

Created 2019 Aug 15 2:07:06 UT using Find_Orb

Click here for an explanation of pseudo-MPECs

 
 Astrometry: 
     P10QAq1  C2019 07 27-DIc`3DjrckP;(c5_'HYs^*=b8ea'n%IXf6VV.?H8ZJ@x9%Y8RvIF51
     P10QAq1  C2019 07 27=5i$piMvl_b(Astrometry;j5@\IE#G^\'O3!K7r:v1oIa;bIC$AF51
     P10QAq1  C2019 07 28g9bI-dk=Ell2GqI?2)owR?^m[aj_(WRj[ow;3CX25$D6vH/bQ$9*F51
     P10QAq1  C2019 07 28wQwY8BrtyKe4tP-_.?Ng=c?M%qRrUOI,b;N[5N`TbZqlA0!`9hW1F51
     P10QAq1  C2019 07 28+w_dHk\#t_/]8r5fXj(8;uredacted;Y%Psrr**W'CA)4W`.JEb=F51
     P10QAq1  C2019 08 10+(uOd3D_FJi?v;$r_I9i7J)FfSE(;chC8=.LbGLfkFb,JC%/lrR*F51
     P10QAq1  C2019 08 10C\*/5Ol+l4N++61m8]3))vi-?n=eAII+S'A]MLOaTZmEE:])N@f$F51
     P10QAq1  C2019 08 10/twXclickkby:f=FsxAVLG`3!tZF@u]###i'3=$kb@DW,;#9x6eEF51
     P10QAq1 KC2019 08 11vSK3!kb^neb7FuUJ@qEdN+%+1r)^(R7]#$^ngB,^TS3cWS4qc.PnH21
     P10QAq1 KC2019 08 11sIRuherea4Nxq+VUCRp*6J]Jg:#qO?%%3R(?(i.0forA%;x5ougfH21
     P10QAq1 KC2019 08 11%#jMXWQ4NZS-_@_h:A1HQexplanationSMG+)(`-sZ+YesaEn_F.H21
     P10QAq1 ^C2019 08 14.50399621 13 47.196+21 53 57.35   ~8EIq 22.30GVNEOCP568
     P10QAq1 ^C2019 08 14.50575721 13 47.086+21 53 56.20   ~8EIq 21.84GVNEOCP568
     P10QAq1 ^C2019 08 14.50729821 13 46.991+21 53 55.35   ~8EIq 22.35GVNEOCP568

Station data:
(568) Mauna Kea  (N19.826116 W155.472200)  US/Hawaii.
(F51) Pan-STARRS 1, Haleakala  (N20.707235 W156.255910)  US/Hawaii.
   Observers N. Primak, A. Schultz, S. Watters, J. Thiel, T. Goggia. Measurer
   PS1 Science Consortium. 1.8-m Ritchey-Chrétien + CCD.
(H21) Astronomical Research Observatory, Westfield  (N39.483057 W87.968270)
   US/Illinois. 0.76-m f/3.0 astrograph + CCD.

Orbital elements:  P10QAq1
   Perihelion 2018 May 28.502774 +/- 1.62 TT = 12:03:59 (JD 2458267.002774)
Epoch 2019 Aug 14.0 TT = JDT 2458709.5   Earth MOID: 0.7814   AutoNEOCP
M 168.94030692 +/- 0.6              (J2000 ecliptic)
n   0.38178839 +/- 8.22e-5          Peri.  308.57008 +/- 0.51
a   1.88186109 +/- 0.00027          Node   203.92651 +/- 0.034
e   0.0714075 +/- 0.000142          Incl.   21.70825 +/- 0.011
P   2.58/942.91d           H 19.7   G  0.15   U  6.5  
q 1.74748194 +/- 0.000219    Q 2.01624025 +/- 0.000505
From 14 observations 2019 July 27-Aug. 14; mean residual 0".24
Residuals in arcseconds: 
190727 F51  .13+  .03+    190810 F51  .12-  .33-    190811 H21  .31+  .54+    
190727 F51  .00   .08+    190810 F51  .15-  .31-    190814 568  .06-  .08-    
190728 F51  .00   .05-    190810 F51  .26-  .54-    190814 568  .03-  .13-    
190728 F51  .12-  .06-    190811 H21  .45+  .49+    190814 568  .02+  .02-    
190728 F51  .03-  .01-    190811 H21  .15-  .39+    

Ephemerides (geocentric):
Date (UTC) HH   RA              Dec         delta   r     elong  mag " sig PA
---- -- -- --  -------------   -----------  ------ ------ -----  --- ---- ---
2019 08 15 02  21 13 12.199   +21 47 56.43  1.1078 2.0142 143.5 22.4 .262 156
2019 08 15 03  21 13 09.666   +21 47 30.07  1.1077 2.0142 143.5 22.4 .266 155
2019 08 15 04  21 13 07.134   +21 47 03.66  1.1077 2.0142 143.5 22.4 .271 155
2019 08 15 05  21 13 04.602   +21 46 37.19  1.1076 2.0142 143.5 22.4 .276 155
2019 08 15 06  21 13 02.071   +21 46 10.67  1.1076 2.0142 143.5 22.4 .281 155
2019 08 15 07  21 12 59.540   +21 45 44.10  1.1075 2.0143 143.6 22.4 .285 155
2019 08 15 08  21 12 57.010   +21 45 17.47  1.1074 2.0143 143.6 22.4 .290 155
2019 08 15 09  21 12 54.481   +21 44 50.79  1.1074 2.0143 143.6 22.4 .295 155
2019 08 15 10  21 12 51.952   +21 44 24.06  1.1073 2.0143 143.6 22.4 .300 155
2019 08 15 11  21 12 49.424   +21 43 57.28  1.1073 2.0143 143.6 22.4 .305 155
2019 08 15 12  21 12 46.897   +21 43 30.44  1.1072 2.0143 143.6 22.4 .310 155
2019 08 15 13  21 12 44.370   +21 43 03.56  1.1071 2.0143 143.6 22.4 .315 155
2019 08 15 14  21 12 41.843   +21 42 36.62  1.1071 2.0143 143.6 22.4 .320 155
2019 08 15 15  21 12 39.318   +21 42 09.62  1.1070 2.0143 143.6 22.4 .325 155
2019 08 15 16  21 12 36.793   +21 41 42.58  1.1070 2.0143 143.7 22.4 .330 155
2019 08 15 17  21 12 34.268   +21 41 15.48  1.1069 2.0143 143.7 22.4 .335 155
2019 08 15 18  21 12 31.745   +21 40 48.33  1.1069 2.0143 143.7 22.4 .340 155
2019 08 15 19  21 12 29.222   +21 40 21.13  1.1068 2.0143 143.7 22.4 .345 155
2019 08 15 20  21 12 26.699   +21 39 53.88  1.1068 2.0143 143.7 22.4 .350 155
2019 08 15 21  21 12 24.177   +21 39 26.57  1.1067 2.0143 143.7 22.4 .355 155
2019 08 15 22  21 12 21.656   +21 38 59.21  1.1066 2.0143 143.7 22.4 .360 154
2019 08 15 23  21 12 19.136   +21 38 31.80  1.1066 2.0143 143.7 22.4 .365 154
2019 08 16 00  21 12 16.616   +21 38 04.34  1.1065 2.0144 143.8 22.4 .370 154
2019 08 16 01  21 12 14.097   +21 37 36.82  1.1065 2.0144 143.8 22.4 .375 154
2019 08 16 02  21 12 11.579   +21 37 09.26  1.1064 2.0144 143.8 22.4 .380 154
2019 08 16 03  21 12 09.061   +21 36 41.64  1.1064 2.0144 143.8 22.4 .385 154
2019 08 16 04  21 12 06.544   +21 36 13.97  1.1063 2.0144 143.8 22.4 .391 154
2019 08 16 05  21 12 04.028   +21 35 46.25  1.1063 2.0144 143.8 22.4 .396 154
2019 08 16 06  21 12 01.513   +21 35 18.47  1.1062 2.0144 143.8 22.4 .401 154
2019 08 16 07  21 11 58.998   +21 34 50.65  1.1062 2.0144 143.8 22.4 .406 154
2019 08 16 08  21 11 56.484   +21 34 22.77  1.1061 2.0144 143.8 22.4 .411 154
2019 08 16 09  21 11 53.971   +21 33 54.84  1.1061 2.0144 143.9 22.4 .417 154
2019 08 16 10  21 11 51.458   +21 33 26.86  1.1060 2.0144 143.9 22.4 .422 154
2019 08 16 11  21 11 48.946   +21 32 58.83  1.1060 2.0144 143.9 22.4 .427 154
2019 08 16 12  21 11 46.435   +21 32 30.74  1.1059 2.0144 143.9 22.4 .433 154
2019 08 16 13  21 11 43.925   +21 32 02.61  1.1059 2.0144 143.9 22.4 .438 154
2019 08 16 14  21 11 41.416   +21 31 34.42  1.1058 2.0144 143.9 22.4 .443 154
2019 08 16 15  21 11 38.907   +21 31 06.18  1.1058 2.0144 143.9 22.4 .449 154
2019 08 16 16  21 11 36.399   +21 30 37.89  1.1057 2.0144 143.9 22.4 .454 154
2019 08 16 17  21 11 33.892   +21 30 09.55  1.1057 2.0145 143.9 22.4 .460 154
2019 08 16 18  21 11 31.386   +21 29 41.16  1.1056 2.0145 143.9 22.4 .465 153
2019 08 16 19  21 11 28.880   +21 29 12.71  1.1056 2.0145 144.0 22.4 .470 153
2019 08 16 20  21 11 26.376   +21 28 44.22  1.1055 2.0145 144.0 22.4 .476 153
2019 08 16 21  21 11 23.872   +21 28 15.67  1.1055 2.0145 144.0 22.4 .481 153
2019 08 16 22  21 11 21.369   +21 27 47.07  1.1054 2.0145 144.0 22.4 .487 153
2019 08 16 23  21 11 18.867   +21 27 18.42  1.1054 2.0145 144.0 22.4 .492 153
2019 08 17 00  21 11 16.365   +21 26 49.72  1.1053 2.0145 144.0 22.4 .498 153
2019 08 17 01  21 11 13.865   +21 26 20.97  1.1053 2.0145 144.0 22.4 .503 153